When you browse on this site, cookies collect data to enhance your experience and personalize the content and advertising you see.
Visit our Privacy Policy to learn more. By continuing to use the site, you agree to this use of cookies and data.
  • In Deutschland
  • Länderverzeichnis
  • Für 7 Tage
  • Wassertemperatur
  • Satellitenkarten
  • Wetterkarte
  • Widgets
  • user-avatar
    Anmelden

    Stündliche Wetter Campo Grande

    Heute, 22 Januar, Dienstag

    Zeit Temperatur Niederschläge Wind Luftdruck Luftfeuchtigkeit
    00:00 +24°C° 0 mm 0 m/S 711 mmHg 64%
    01:00 +24°C° 0 mm 0 m/S 711 mmHg 65%
    02:00 +24°C° 0 mm 0 m/S 711 mmHg 66%
    03:00 +23°C° 0 mm 0 m/S 711 mmHg 66%
    04:00 +25°C° 0 mm 1 m/S 711 mmHg 67%
    05:00 +25°C° 0 mm 1 m/S 711 mmHg 68%
    06:00 +27°C° 0 mm 1 m/S 712 mmHg 65%
    07:00 +29°C° 0 mm 1 m/S 712 mmHg 61%
    08:00 +31°C° 0 mm 1 m/S 713 mmHg 57%
    09:00 +32°C° 0 mm 1 m/S 713 mmHg 54%
    10:00 +33°C° 0 mm 1 m/S 713 mmHg 50%
    11:00 +35°C° 0 mm 1 m/S 713 mmHg 46%
    12:00 +35°C° 0 mm 1 m/S 712 mmHg 46%
    13:00 +35°C° 0 mm 1 m/S 712 mmHg 46%
    14:00 +35°C° 0 mm 1 m/S 711 mmHg 46%
    15:00 +34°C° 0 mm 1 m/S 711 mmHg 48%
    16:00 +32°C° 0 mm 0 m/S 710 mmHg 51%
    17:00 +32°C° 0 mm 0 m/S 710 mmHg 53%
    18:00 +32°C° 0 mm 1 m/S 710 mmHg 54%
    19:00 +31°C° 0 mm 1 m/S 710 mmHg 54%
    20:00 +30°C° 0 mm 1 m/S 710 mmHg 55%
    21:00 +30°C° 0 mm 1 m/S 710 mmHg 56%
    22:00 +30°C° 0 mm 2 m/S 711 mmHg 58%
    23:00 +29°C° 0 mm 2 m/S 711 mmHg 59%

    Morgen, 23 Januar, Mittwoch

    Zeit Temperatur Niederschläge Wind Luftdruck Luftfeuchtigkeit
    00:00 +29°C° 0 mm 2 m/S 711 mmHg 63%
    01:00 +28°C° 0 mm 2 m/S 710 mmHg 67%
    02:00 +28°C° 0 mm 2 m/S 710 mmHg 71%
    03:00 +27°C° 0 mm 2 m/S 710 mmHg 72%
    04:00 +27°C° 0 mm 2 m/S 710 mmHg 74%
    05:00 +26°C° 0 mm 3 m/S 710 mmHg 75%
    06:00 +28°C° 0 mm 3 m/S 711 mmHg 71%
    07:00 +30°C° 0 mm 3 m/S 712 mmHg 66%
    08:00 +31°C° 0 mm 3 m/S 712 mmHg 62%
    09:00 +34°C° 0 mm 3 m/S 712 mmHg 56%
    10:00 +35°C° 0 mm 2 m/S 712 mmHg 49%
    11:00 +37°C° 0 mm 2 m/S 712 mmHg 43%
    12:00 +37°C° 0 mm 2 m/S 712 mmHg 41%
    13:00 +37°C° 0 mm 1 m/S 711 mmHg 39%
    14:00 +39°C° 0 mm 1 m/S 711 mmHg 37%
    15:00 +37°C° 0 mm 1 m/S 710 mmHg 40%
    16:00 +36°C° 0 mm 1 m/S 710 mmHg 43%
    17:00 +36°C° 0 mm 2 m/S 709 mmHg 46%
    18:00 +35°C° 0 mm 2 m/S 709 mmHg 48%
    19:00 +32°C° 0 mm 2 m/S 710 mmHg 50%
    20:00 +31°C° 0 mm 2 m/S 710 mmHg 52%
    21:00 +31°C° 0 mm 2 m/S 710 mmHg 54%
    22:00 +30°C° 0 mm 2 m/S 710 mmHg 57%
    23:00 +29°C° 0 mm 3 m/S 710 mmHg 59%

    übermorgen, 24 Januar, Donnerstag

    Zeit Temperatur Niederschläge Wind Luftdruck Luftfeuchtigkeit
    00:00 +29°C° 0 mm 2 m/S 710 mmHg 63%
    01:00 +28°C° 0 mm 2 m/S 709 mmHg 66%
    02:00 +28°C° 0 mm 2 m/S 709 mmHg 70%
    03:00 +28°C° 0 mm 2 m/S 709 mmHg 72%
    04:00 +27°C° 0 mm 2 m/S 709 mmHg 73%
    05:00 +27°C° 0 mm 2 m/S 709 mmHg 75%
    06:00 +29°C° 0 mm 2 m/S 710 mmHg 71%
    07:00 +30°C° 0 mm 2 m/S 711 mmHg 67%
    08:00 +33°C° 0 mm 3 m/S 711 mmHg 62%
    09:00 +34°C° 0.2 mm 2 m/S 711 mmHg 57%
    10:00 +35°C° 0.2 mm 2 m/S 711 mmHg 52%
    11:00 +37°C° 0.2 mm 2 m/S 711 mmHg 46%
    12:00 +37°C° 0 mm 2 m/S 711 mmHg 45%
    13:00 +36°C° 0 mm 1 m/S 710 mmHg 44%
    14:00 +36°C° 0 mm 1 m/S 709 mmHg 43%
    15:00 +35°C° 0 mm 1 m/S 709 mmHg 46%
    16:00 +35°C° 0 mm 1 m/S 708 mmHg 49%
    17:00 +34°C° 0 mm 1 m/S 708 mmHg 51%
    18:00 +33°C° 0 mm 1 m/S 708 mmHg 53%
    19:00 +32°C° 0 mm 2 m/S 708 mmHg 55%
    20:00 +30°C° 0 mm 2 m/S 709 mmHg 57%
    21:00 +30°C° 0 mm 2 m/S 709 mmHg 58%
    22:00 +30°C° 0 mm 2 m/S 709 mmHg 59%
    23:00 +29°C° 0 mm 2 m/S 709 mmHg 59%

    25 Januar, Freitag

    Zeit Temperatur Niederschläge Wind Luftdruck Luftfeuchtigkeit
    00:00 +29°C° 0.1 mm 2 m/S 709 mmHg 62%
    01:00 +28°C° 0.1 mm 2 m/S 709 mmHg 65%
    02:00 +28°C° 0.1 mm 2 m/S 708 mmHg 68%
    03:00 +27°C° 1.1 mm 2 m/S 708 mmHg 74%
    04:00 +26°C° 1.1 mm 3 m/S 708 mmHg 80%
    05:00 +25°C° 1.1 mm 3 m/S 708 mmHg 87%
    06:00 +27°C° 0.2 mm 3 m/S 709 mmHg 81%
    07:00 +28°C° 0.2 mm 3 m/S 709 mmHg 76%
    08:00 +30°C° 0.2 mm 2 m/S 710 mmHg 71%
    09:00 +31°C° 0.6 mm 2 m/S 710 mmHg 64%
    10:00 +32°C° 0.6 mm 2 m/S 710 mmHg 58%
    11:00 +35°C° 0.6 mm 3 m/S 710 mmHg 51%
    12:00 +35°C° 0 mm 2 m/S 709 mmHg 50%
    13:00 +35°C° 0 mm 2 m/S 709 mmHg 49%
    14:00 +35°C° 0 mm 1 m/S 708 mmHg 48%
    15:00 +34°C° 0 mm 1 m/S 708 mmHg 51%
    16:00 +33°C° 0 mm 1 m/S 707 mmHg 53%
    17:00 +32°C° 0 mm 1 m/S 707 mmHg 56%
    18:00 +32°C° 0 mm 1 m/S 707 mmHg 57%
    19:00 +31°C° 0 mm 2 m/S 708 mmHg 58%
    20:00 +30°C° 0 mm 2 m/S 708 mmHg 58%
    21:00 +29°C° 0.3 mm 3 m/S 708 mmHg 66%
    22:00 +28°C° 0.3 mm 3 m/S 708 mmHg 73%
    23:00 +26°C° 0.3 mm 4 m/S 708 mmHg 81%

    26 Januar, Samstag

    Zeit Temperatur Niederschläge Wind Luftdruck Luftfeuchtigkeit
    00:00 +26°C° 1.9 mm 3 m/S 708 mmHg 84%
    01:00 +25°C° 1.9 mm 3 m/S 708 mmHg 88%
    02:00 +25°C° 1.9 mm 2 m/S 708 mmHg 91%
    03:00 +25°C° 0.3 mm 2 m/S 708 mmHg 90%
    04:00 +24°C° 0.3 mm 2 m/S 708 mmHg 89%
    05:00 +24°C° 0.3 mm 2 m/S 708 mmHg 89%
    06:00 +26°C° 0.5 mm 2 m/S 708 mmHg 84%
    07:00 +27°C° 0.5 mm 2 m/S 709 mmHg 80%
    08:00 +28°C° 0.5 mm 3 m/S 710 mmHg 75%
    09:00 +30°C° 0.8 mm 3 m/S 710 mmHg 68%
    10:00 +31°C° 0.8 mm 2 m/S 710 mmHg 60%
    11:00 +34°C° 0.8 mm 2 m/S 710 mmHg 53%
    12:00 +32°C° 1 mm 2 m/S 709 mmHg 58%
    13:00 +31°C° 1 mm 2 m/S 709 mmHg 63%
    14:00 +30°C° 1 mm 2 m/S 708 mmHg 69%
    15:00 +30°C° 0.7 mm 2 m/S 708 mmHg 66%
    16:00 +31°C° 0.7 mm 2 m/S 707 mmHg 64%
    17:00 +32°C° 0.7 mm 1 m/S 707 mmHg 62%
    18:00 +30°C° 0.8 mm 3 m/S 708 mmHg 68%
    19:00 +28°C° 0.8 mm 4 m/S 708 mmHg 75%
    20:00 +26°C° 0.8 mm 5 m/S 708 mmHg 81%
    21:00 +26°C° 0 mm 6 m/S 709 mmHg 82%
    22:00 +24°C° 0 mm 6 m/S 709 mmHg 82%
    23:00 +24°C° 0 mm 6 m/S 709 mmHg 83%

    27 Januar, Sonntag

    Zeit Temperatur Niederschläge Wind Luftdruck Luftfeuchtigkeit
    00:00 +25°C° 0 mm 5 m/S 709 mmHg 84%
    01:00 +23°C° 0 mm 4 m/S 708 mmHg 85%
    02:00 +23°C° 0 mm 4 m/S 708 mmHg 87%
    03:00 +22°C° 0 mm 3 m/S 708 mmHg 87%
    04:00 +22°C° 0 mm 3 m/S 708 mmHg 87%
    05:00 +22°C° 0 mm 3 m/S 708 mmHg 87%
    06:00 +23°C° 0 mm 4 m/S 709 mmHg 83%
    07:00 +25°C° 0 mm 4 m/S 709 mmHg 79%
    08:00 +26°C° 0 mm 5 m/S 710 mmHg 75%
    09:00 +28°C° 0.5 mm 4 m/S 710 mmHg 71%
    10:00 +29°C° 0.5 mm 4 m/S 710 mmHg 66%
    11:00 +32°C° 0.5 mm 4 m/S 710 mmHg 62%
    12:00 +31°C° 1.4 mm 3 m/S 709 mmHg 61%
    13:00 +31°C° 1.4 mm 2 m/S 709 mmHg 60%
    14:00 +31°C° 1.4 mm 2 m/S 708 mmHg 60%
    15:00 +31°C° 1.6 mm 2 m/S 708 mmHg 64%
    16:00 +30°C° 1.6 mm 2 m/S 708 mmHg 68%
    17:00 +29°C° 1.6 mm 3 m/S 708 mmHg 72%
    18:00 +28°C° 1.8 mm 3 m/S 708 mmHg 76%
    19:00 +26°C° 1.8 mm 4 m/S 708 mmHg 80%
    20:00 +23°C° 1.8 mm 5 m/S 709 mmHg 85%
    21:00 +23°C° 0 mm 5 m/S 709 mmHg 85%
    22:00 +23°C° 0 mm 5 m/S 709 mmHg 85%
    23:00 +22°C° 0 mm 5 m/S 709 mmHg 85%
    Mehr zeigen